{"data":{"norad_id":63014,"intl_designator":"2025-032K","name":"STARLINK-11578 [DTC]","alt_names":[],"object_type":"PAYLOAD","status":"ACTIVE","operator":null,"country":"US","launch_date":"2025-02-15","launch_site_code":"AFETR","launch_vehicle":null,"mission":null,"orbit_class":"UNKNOWN","rcs_meters":null,"size_class":null,"mass_kg":null,"dimensions":null,"purposes":["comms"],"wikipedia_slug":null,"has_3d_model":false,"image_url":null,"decayed_at":null,"tle_current":{"epoch":"2026-05-25T03:18:19.726848Z","epoch_age_seconds":69899,"freshness":"FRESH","line1":"1 63014U 25032K   26145.13772832  .00180779  00000+0  13802-2 0  9994","line2":"2 63014  43.0031  94.8433 0001584 235.9644 124.1073 15.70869654 74188","mean_motion":15.70869654,"eccentricity":0.0001584,"inclination_deg":43.0031,"raan_deg":94.8433,"arg_perigee_deg":235.9644,"mean_anomaly_deg":124.1073,"bstar":0.0013802,"rev_number":7418,"period_min":91.668967971546,"perigee_km":355.34355392675,"apogee_km":357.47705851336,"semimajor_km":6734.5473062201,"source":"CELESTRAK","updated_at":"2026-05-25T13:38:19.836869Z"}}}